{"data":{"norad_id":61924,"epoch":"2026-05-25T05:31:18.172416Z","epoch_age_seconds":58445,"freshness":"FRESH","line1":"1 61924U 24207N   26145.23007144  .00009701  00000+0  36149-3 0  9998","line2":"2 61924  43.0014 213.3122 0000966 277.8134  82.2608 15.27586668 86388","mean_motion":15.27586668,"eccentricity":9.66e-5,"inclination_deg":43.0014,"raan_deg":213.3122,"arg_perigee_deg":277.8134,"mean_anomaly_deg":82.2608,"bstar":0.00036149,"rev_number":8638,"period_min":94.266337234098,"perigee_km":482.36634107335,"apogee_km":483.69191836961,"semimajor_km":6861.1661297215,"source":"CELESTRAK","updated_at":"2026-05-25T13:38:19.482931Z"}}